Regional Weather Roundup
Issued by NWS Northern Indiana

Home | Current Version | Previous Version | Text Only | Print | Product List | Glossary On
Versions: 1 2 3 4 5 6 7 8 9 10 11 12 13 14 15 16 17 18 19 20 21 22 23 24 25 26 27 28 29 30 31 32 33 34 35 36 37 38 39 40 41 42 43 44 45 46 47 48 49 50
859
ASUS43 KIWX 041110
RWRIWX

KIWX WEATHER ROUNDUP
NATIONAL WEATHER SERVICE NORTHERN INDIANA
600 AM EST SUN DEC 04 2016

NOTE: "FAIR" INDICATES FEW OR NO CLOUDS BELOW 12,000 FEET WITH NO
SIGNIFICANT WEATHER AND/OR OBSTRUCTIONS TO VISIBILITY.

* THESE STATIONS ARE NOT UNDER NWS QUALITY CONTROL. THEY ALSO MAY NOT
  REPORT WEATHER SUCH AS PRECIPITATION OR FOG.

INZ001>027-041200-
NORTHERN INDIANA

CITY           SKY/WX    TMP DP  RH WIND       PRES   REMARKS
GARY*          CLOUDY    32  28  86 CALM      30.20F
VALPARAISO     CLOUDY    31  27  85 E5        30.19F WCI  26
MICHIGAN CITY* CLOUDY    32  27  80 CALM      30.20F
LAPORTE*       CLOUDY    32  32 100 CALM      30.20F
KNOX*          CLOUDY    30  16  55 E3        30.20F
SOUTH BEND     CLOUDY    31  27  85 E5        30.20F WCI  26
GOSHEN         CLOUDY    32  26  78 E5        30.19F WCI  27
MONTICELLO*    CLOUDY    32  24  72 CALM      30.19F
LOGANSPORT*    CLOUDY    32  28  86 E3        30.20F
ROCHESTER*     PTCLDY    32  30  93 CALM      30.20S
WARSAW*        CLOUDY    30  27  86 E3        30.20F
ANGOLA*        CLOUDY    30  28  93 CALM      30.20F
FORT WAYNE     CLOUDY    32  26  78 E6        30.21F WCI  26
HUNTINGTON*    CLOUDY    32  28  84 SE6       30.19F WCI  26
PERU/GRISSOM   CLOUDY    32  28  86 E5        30.17F WCI  27
MARION*        PTCLDY    32  29  90 SE6       30.19F FOG     WCI  26

$$
INZ028>050-041200-
CENTRAL INDIANA

CITY           SKY/WX    TMP DP  RH WIND       PRES   REMARKS
LAFAYETTE      CLOUDY    32  28  85 E3        30.19F
KOKOMO*        CLOUDY    32  30  92 SE5       30.19F WCI  27
MUNCIE*        CLOUDY    33  30  88 SE5       30.19F WCI  29
INDIANAPOLIS   CLOUDY    34  28  79 E7        30.17F WCI  28

$$
MIZ043>046-050>051-056>058-064>065-071>073-077>080-041200-
SOUTHWEST LOWER MICHIGAN

CITY           SKY/WX    TMP DP  RH WIND       PRES   REMARKS
BATTLE CREEK   PTCLDY    32  28  85 SE3       30.21F
BENTON HARBOR  CLOUDY    34  26  72 SE3       30.20F
COLDWATER*     CLOUDY    30  28  90 CALM      30.21F
HILLSDALE*     MOCLDY    30  27  86 CALM      30.19F
HOLLAND        CLOUDY    34  27  75 S8        30.20F WCI  27
GRAND RAPIDS   CLOUDY    33  27  78 SE6       30.21F WCI  28
KALAMAZOO      MOCLDY    32  26  78 SE3       30.21F HAZE
STURGIS*       CLOUDY    32  28  84 CALM      30.20F
THREE RIVERS*  CLOUDY    32  29  88 CALM      30.21F

$$
OHZ001>008-015>018-024>025-041200-
NORTHWEST OHIO

CITY           SKY/WX    TMP DP  RH WIND       PRES   REMARKS
WAUSEON*       CLOUDY    32  28  86 CALM      30.22F
DEFIANCE       CLOUDY    35  26  69 CALM      30.23F
FINDLAY        CLOUDY    34  26  72 E5        30.22F WCI  30
TOLEDO EXPRESS CLOUDY    31  27  85 E3        30.23F
TOLEDO METCALF CLOUDY    34  29  82 CALM      30.25F
LIMA           CLOUDY    33  28  81 SE9       30.21F WCI  25

$$
AND FOR LAKE MICHIGAN COASTAL AND OPEN LAKE BUOY OBSERVATIONS

STATION/POSITION TEMP    WIND        PRES    VSBY  WAVE
                 AIR SEA DIR/SP/G                  HT/PER
                 (F)     (DEG/KT/KT) (MB)    (MI)  (FT/S)
CALUMET HARBOR    33     160/  3/  3 1021.8F
MICHIGAN CITY     32     120/  5/  6   N/A
BURNS HARBOR      33     170/  4/  8 1022.7F
SAINT JOSEPH      34      CALM  /  4 1023.4
SOUTH LAKE BUOY   36 48  210/  4/  6 1022.7F         0

$$
&&




USA.gov is the U.S. government's official web portal to all federal, state and local government web resources and services.